Location: Champs
(48.8539°N, 2.6040°E)
Time: 17:47:22
(UTC+00:00)

DMSP 5D-2 F13 DEB - Pass Details

Date: 15 August 2022
Orbit: 710 x 775 km, 98.8° (Epoch: 23 September)

Event Time Altitude Azimuth Distance (km) Brightness Sun altitude
Exits shadow 22:38:45 52° 89° (E) 967 ? -25.1°
Maximum altitude 22:39:14 54° 69° (ENE) 947 ? -25.2°
Drops below altitude 10° 22:44:15 10° 353° (N) 2,344 ? -25.4°
Sets 22:46:38 0° 349° (N) 3,278 ? -25.6°
